This is the latest recevied weather packets stored in our database for station/object VE3CGR-6. If no packets are shown the sender has not sent any weather packets the latest 10 day(s).
| Time | Temp. | Humidity | Pressure | Rain* | Wind** | Luminosity | Snow |
|---|---|---|---|---|---|---|---|
| 1788447617 | 24.44° C | 71% | 1014.7 hPa | 0 mm | - | - | - |
| 1788447018 | 23.89° C | 71% | 1014.8 hPa | 0 mm | - | - | - |
| 1788446417 | 23.89° C | 71% | 1014.8 hPa | 0 mm | - | - | - |
| 1788445818 | 23.33° C | 76% | 1014.9 hPa | 0 mm | - | - | - |
| 1788445217 | 22.78° C | 77% | 1014.7 hPa | 0 mm | - | - | - |
| 1788444618 | 22.22° C | 81% | 1014.8 hPa | 0 mm | - | - | - |
| 1788444018 | 22.22° C | 85% | 1014.8 hPa | 0 mm | - | - | - |
| 1788443417 | 21.11° C | 88% | 1014.7 hPa | 0 mm | - | - | - |
| 1788442818 | 20.56° C | 93% | 1014.7 hPa | 0 mm | - | - | - |
| 1788442217 | 20° C | 93% | 1014.7 hPa | 0 mm | - | - | - |
| 1788441617 | 19.44° C | 93% | 1014.8 hPa | 0 mm | - | - | - |
| 1788441017 | 20° C | 93% | 1014.9 hPa | 0 mm | - | - | - |
| 1788440417 | 20° C | 94% | 1014.9 hPa | 0 mm | - | - | - |
| 1788439817 | 19.44° C | 94% | 1015.1 hPa | 0 mm | - | - | - |
| 1788439218 | 19.44° C | 94% | 1015 hPa | 0 mm | - | - | - |
| 1788438617 | 19.44° C | 94% | 1014.8 hPa | 0.25 mm | - | - | - |
| 1788438017 | 18.89° C | 94% | 1014.8 hPa | 0.25 mm | - | - | - |
| 1788437417 | 18.89° C | 94% | 1014.8 hPa | 0.25 mm | - | - | - |
| 1788436817 | 18.89° C | 94% | 1014.8 hPa | 0.25 mm | - | - | - |
| 1788436217 | 18.33° C | 94% | 1014.7 hPa | 0.25 mm | - | - | - |
| 1788435617 | 17.78° C | 94% | 1014.6 hPa | 0.25 mm | - | - | - |
| 1788435017 | 17.78° C | 94% | 1014.4 hPa | 0 mm | - | - | - |
| 1788434417 | 17.78° C | 94% | 1014.3 hPa | 0 mm | - | - | - |
| 1788433817 | 17.78° C | 94% | 1014.3 hPa | 0 mm | - | - | - |
| 1788433217 | 17.78° C | 94% | 1014.1 hPa | 0 mm | - | - | - |
* Rain latest hour (hover to see other rain measurements)
** Current wind speed in m/s (hover to see current wind gust speed)